Tracking 30990 objects as of 8-Jul-2025
HD Live streaming from Space Station
objects crossing your sky now

STARLINK-2647

Track STARLINK-2647 now!
10-day predictions
STARLINK-2647 is classified as:


NORAD ID: 48658
Int'l Code: 2021-044W
Perigee: 553.4 km
Apogee: 555.4 km
Inclination: 53.1 °
Period: 95.6 minutes
Semi major axis: 6925 km
RCS: Unknown
Launch date: May 26, 2021
Source: United States (US)
Launch site: AIR FORCE EASTERN TEST RANGE (AFETR)
Your satellite tracking list
Your tracking list is empty




NASA's NSSDC Master Catalog

Two Line Element Set (TLE):
1 48658U 21044W   25189.17283156  .00000051  00000-0  22324-4 0  9993
2 48658  53.0548 139.2969 0001457  68.8092 291.3052 15.06396341227750
Source of the keplerian elements: AFSPC